Date String (YYYY-MM-DD hh:mm:ss) UTC,Instrument flags,Ambient pressure (hPa),Sample flow (lpm),Bypass flow (lpm),Sample temperature (°C),Ambient temperature (°C),ASC tube jacket temperature (°C),LED temperature (°C),Box temperature (°C),Sample RH (%),Span deviation,Mass concentration (μg/m³),Mass concentration (μg/m³),Mass concentration (μg/m³)
DateTimeUTC,F1_M11,P_M11,Q1_M11,Q2_M11,T1_M11,T2_M11,T3_M11,T4_M11,T5_M11,U1_M11,ZSPAN_M11,X2_M11,X0_M11,X1_M11
2023-03-02 18:00:00,,0816.4,5.02,0.00,23.3,22.1,00.0,31.9,25.2,15.8,0000.0,0007.26,0012.27,0006.78
2023-03-02 18:01:00,,0816.4,5.01,0.00,23.3,22.1,00.0,31.9,25.2,15.7,0000.0,0007.24,0012.20,0006.78
2023-03-02 18:02:00,,0816.4,5.00,0.00,23.3,22.1,00.0,32.0,25.2,15.6,0000.0,0007.21,0011.75,0006.76
2023-03-02 18:03:00,,0816.4,4.99,0.00,23.3,22.1,00.0,32.0,25.2,15.3,0000.0,0007.17,0011.74,0006.74
2023-03-02 18:04:00,,0816.3,5.00,0.00,23.3,22.1,00.0,32.0,25.2,14.8,0000.0,0007.15,0011.74,0006.70
2023-03-02 18:05:00,,0816.4,5.00,0.00,23.3,22.1,00.0,32.0,25.2,14.6,0000.0,0007.13,0011.81,0006.68
2023-03-02 18:06:00,,0816.4,5.01,0.00,23.3,22.1,00.0,32.0,25.2,14.1,0000.0,0007.09,0011.05,0006.65
2023-03-02 18:07:00,,0816.4,4.99,0.00,23.3,22.1,00.0,32.0,25.2,14.2,0000.0,0007.04,0011.15,0006.60
2023-03-02 18:08:00,,0816.4,4.99,0.00,23.3,22.1,00.0,32.0,25.2,14.6,0000.0,0007.01,0011.38,0006.58
2023-03-02 18:09:00,,0816.4,5.00,0.00,23.3,22.1,00.0,32.0,25.2,14.3,0000.0,0007.02,0011.57,0006.55
2023-03-02 18:10:00,,0816.4,5.00,0.00,23.4,22.1,00.0,32.0,25.2,13.9,0000.0,0006.97,0011.50,0006.50
2023-03-02 18:11:00,,0816.4,5.01,0.00,23.4,22.1,00.0,32.0,25.2,13.7,0000.0,0006.92,0011.40,0006.46
2023-03-02 18:12:00,,0816.4,5.00,0.00,23.4,22.1,00.0,32.0,25.3,13.8,0000.0,0006.86,0011.24,0006.40
2023-03-02 18:13:00,,0816.3,5.01,0.00,23.4,22.2,00.0,32.0,25.3,14.8,0000.0,0006.85,0011.35,0006.39
2023-03-02 18:14:00,,0816.3,5.00,0.00,23.4,22.2,00.0,32.0,25.3,14.6,0000.0,0006.81,0011.87,0006.37
2023-03-02 18:15:00,,0816.3,4.98,0.00,23.4,22.2,00.0,32.0,25.3,14.8,0000.0,0006.77,0011.79,0006.36
2023-03-02 18:16:00,,0816.3,4.99,0.00,23.4,22.2,00.0,32.0,25.3,14.6,0000.0,0006.72,0011.64,0006.33
2023-03-02 18:17:00,,0816.3,5.00,0.00,23.4,22.2,00.0,32.0,25.3,14.0,0000.0,0006.69,0011.13,0006.27
2023-03-02 18:18:00,,0816.3,5.00,0.00,23.4,22.2,00.0,32.0,25.3,13.5,0000.0,0006.66,0011.16,0006.22
2023-03-02 18:19:00,,0816.3,5.00,0.00,23.4,22.2,00.0,32.0,25.3,13.8,0000.0,0006.61,0010.90,0006.14
2023-03-02 18:20:00,,0816.3,4.99,0.00,23.4,22.1,00.0,32.1,25.3,13.2,0000.0,0006.53,0010.71,0006.07
2023-03-02 18:21:00,,0816.3,5.00,0.00,23.4,22.1,00.0,32.1,25.3,13.9,0000.0,0006.48,0010.72,0006.01
2023-03-02 18:22:00,,0816.2,5.00,0.00,23.4,22.1,00.0,32.1,25.3,14.1,0000.0,0006.42,0010.94,0005.99
2023-03-02 18:23:00,,0816.3,5.00,0.00,23.4,22.2,00.0,32.1,25.3,12.6,0000.0,0006.32,0010.92,0005.92
2023-03-02 18:24:00,,0816.3,4.98,0.00,23.4,22.2,00.0,32.1,25.3,12.5,0000.0,0006.15,0010.54,0005.75
2023-03-02 18:25:00,,0816.2,4.97,0.00,23.4,22.1,00.0,32.1,25.3,11.8,0000.0,0005.96,0009.76,0005.56
2023-03-02 18:26:00,,0816.2,5.01,0.00,23.4,22.1,00.0,32.1,25.3,12.1,0000.0,0005.77,0009.67,0005.38
2023-03-02 18:27:00,,0816.1,5.00,0.00,23.4,22.1,00.0,32.1,25.2,12.3,0000.0,0005.60,0009.61,0005.20
2023-03-02 18:28:00,,0816.1,5.01,0.00,23.4,22.1,00.0,32.1,25.3,12.6,0000.0,0005.49,0009.49,0005.12
2023-03-02 18:29:00,,0816.1,4.99,0.00,23.4,22.1,00.0,32.1,25.3,12.3,0000.0,0005.39,0009.45,0005.04
2023-03-02 18:30:00,,0816.2,5.00,0.00,23.4,22.2,00.0,32.1,25.3,12.9,0000.0,0005.33,0009.67,0005.02
2023-03-02 18:31:00,,0816.1,5.00,0.00,23.4,22.2,00.0,32.1,25.3,12.6,0000.0,0005.28,0009.58,0004.99
2023-03-02 18:32:00,,0816.1,5.00,0.00,23.4,22.1,00.0,32.1,25.3,12.2,0000.0,0005.20,0009.39,0004.92
2023-03-02 18:33:00,,0816.2,5.01,0.00,23.4,22.1,00.0,32.1,25.3,11.6,0000.0,0005.05,0009.08,0004.77
2023-03-02 18:34:00,,0816.1,4.99,0.00,23.4,22.1,00.0,32.1,25.3,11.6,0000.0,0004.91,0009.51,0004.65
2023-03-02 18:35:00,,0816.1,5.00,0.00,23.4,22.1,00.0,32.1,25.3,12.0,0000.0,0004.82,0009.28,0004.57
2023-03-02 18:36:00,,0816.1,4.99,0.00,23.4,22.1,00.0,32.1,25.3,11.9,0000.0,0004.84,0009.35,0004.59
2023-03-02 18:37:00,,0816.1,4.99,0.00,23.4,22.1,00.0,32.1,25.3,12.0,0000.0,0004.88,0009.27,0004.62
2023-03-02 18:38:00,,0816.1,5.00,0.00,23.4,22.2,00.0,32.1,25.3,12.2,0000.0,0004.94,0009.39,0004.67
2023-03-02 18:39:00,,0816.0,4.98,0.00,23.5,22.2,00.0,32.1,25.3,12.8,0000.0,0004.97,0009.43,0004.70
2023-03-02 18:40:00,,0816.0,4.99,0.00,23.5,22.2,00.0,32.1,25.3,12.8,0000.0,0005.01,0009.23,0004.74
2023-03-02 18:41:00,,0816.1,5.01,0.00,23.4,22.2,00.0,32.1,25.3,13.3,0000.0,0005.03,0008.83,0004.75
2023-03-02 18:42:00,,0816.0,4.99,0.00,23.4,22.1,00.0,32.1,25.3,13.1,0000.0,0005.07,0008.92,0004.78
2023-03-02 18:43:00,,0816.0,4.99,0.00,23.4,22.0,00.0,32.1,25.2,12.6,0000.0,0005.11,0008.97,0004.82
2023-03-02 18:44:00,,0816.0,5.00,0.00,23.4,22.0,00.0,32.1,25.2,12.6,0000.0,0005.22,0008.96,0004.93
2023-03-02 18:45:00,,0816.0,4.99,0.00,23.4,22.0,00.0,32.1,25.2,12.8,0000.0,0005.42,0008.47,0005.11
2023-03-02 18:46:00,,0815.9,4.99,0.00,23.4,22.1,00.0,32.1,25.3,13.0,0000.0,0005.62,0008.71,0005.30
2023-03-02 18:47:00,,0815.9,4.99,0.00,23.4,22.1,00.0,32.1,25.3,13.0,0000.0,0005.77,0008.93,0005.44
2023-03-02 18:48:00,,0815.9,5.01,0.00,23.4,22.1,00.0,32.1,25.3,13.5,0000.0,0005.89,0009.05,0005.56
2023-03-02 18:49:00,,0815.9,4.99,0.00,23.4,22.2,00.0,32.1,25.3,13.7,0000.0,0006.00,0009.06,0005.67
2023-03-02 18:50:00,,0815.9,5.01,0.00,23.4,22.2,00.0,32.1,25.3,13.9,0000.0,0006.09,0009.08,0005.77
2023-03-02 18:51:00,,0815.9,5.00,0.00,23.5,22.2,00.0,32.1,25.3,14.0,0000.0,0006.19,0009.18,0005.87
2023-03-02 18:52:00,,0815.9,5.00,0.00,23.5,22.2,00.0,32.1,25.4,14.1,0000.0,0006.27,0009.46,0005.95
2023-03-02 18:53:00,,0815.9,4.99,0.00,23.5,22.2,00.0,32.1,25.4,13.9,0000.0,0006.33,0009.62,0005.99
2023-03-02 18:54:00,,0815.8,5.01,0.00,23.5,22.2,00.0,32.1,25.3,13.6,0000.0,0006.40,0009.82,0006.05
2023-03-02 18:55:00,,0815.9,5.00,0.00,23.5,22.2,00.0,32.2,25.3,13.5,0000.0,0006.47,0010.00,0006.09
2023-03-02 18:56:00,,0815.9,4.96,0.00,23.5,22.2,00.0,32.2,25.3,13.4,0000.0,0006.47,0010.04,0006.09
2023-03-02 18:57:00,,0815.9,5.01,0.00,23.5,22.1,00.0,32.2,25.3,13.2,0000.0,0006.42,0010.12,0006.05
2023-03-02 18:58:00,,0815.9,5.00,0.00,23.4,22.1,00.0,32.2,25.3,13.0,0000.0,0006.38,0010.03,0006.00
2023-03-02 18:59:00,,0815.9,5.01,0.00,23.4,22.0,00.0,32.2,25.2,12.8,0000.0,0006.31,0009.92,0005.93
